SCP
3 3 3 4 5 5 5 4 3 3 3 3 4 5 5 5 4 3 3 3 3 3 3 2 2 2 2 2 2 2 2 2 2 1 1 0 0 0 0 0 0 0 0
4 4 3 4 5 5 5 4 3 3 3 4 5 5 5 5 4 3 3 3 3 3 3 3 3 2 2 2 2 2 2 2 2 1 1 0 0 0 0 0 0 0 0
5 5 4 4 5 6 6 5 4 3 3 4 5 4 4 4 4 4 3 3 3 3 3 3 3 2 2 2 2 2 2 2 1 1 1 1 0 0 0 0 0 0 0
5 5 5 5 6 6 6 6 5 4 3 4 4 3 3 3 4 3 3 3 3 3 3 2 2 2 2 2 2 2 2 2 1 1 1 1 1 1 1 1 0 1 1
5 6 6 6 6 6 6 5 5 4 4 3 3 3 3 3 3 3 3 3 3 2 2 2 2 2 2 2 2 2 2 2 2 1 1 1 1 1 1 1 1 1 1
6 6 7 6 6 6 6 5 5 4 4 3 3 3 3 3 3 2 2 3 2 2 2 1 2 2 2 2 2 2 2 2 2 2 2 1 1 1 1 1 1 1 1
6 7 7 7 7 6 6 6 5 5 4 4 3 3 3 3 2 2 2 2 2 2 2 2 1 2 2 2 2 2 2 2 2 2 2 2 2 2 2 2 2 2 2
7 7 8 8 7 6 5 5 5 5 5 5 4 3 3 3 2 2 1 2 2 2 2 2 2 2 2 3 3 3 3 3 2 2 3 3 2 2 3 3 3 3 3
8 8 8 8 8 6 5 5 5 5 5 5 5 4 3 3 2 2 1 2 2 2 2 2 2 2 2 2 3 4 4 4 3 3 2 2 2 2 2 3 3 3 3
8 8 8 8 8 7 5 5 5 5 6 6 5 5 4 3 2 2 1 2 3 2 2 2 2 1 2 2 2 4 5 5 6 5 3 3 2 2 2 2 3 3 3
5 6 6 6 7 6 5 5 4 5 5 5 5 5 4 3 3 2 1 2 3 3 3 2 1 1 1 1 1 3 4 5 7 7 6 5 4 4 3 2 2 3 4
3 3 3 4 4 4 5 4 4 4 5 5 5 5 5 4 3 2 1 2 3 3 3 2 1 0 0 0 0 1 2 3 6 8 7 6 6 6 5 3 2 2 3
2 2 2 2 2 3 4 4 4 4 5 5 6 6 6 5 4 2 1 1 1 2 2 1 1 0 0 0 0 0 0 2 4 7 8 8 8 8 7 5 3 2 3
2 3 2 2 2 2 3 4 5 5 6 6 7 7 7 7 5 3 1 0 0 1 1 1 0 0 0 0 0 0 0 2 4 6 8 9 9 9 8 6 4 3 3
2 2 2 2 2 2 1 2 3 4 5 5 6 7 7 7 5 3 2 1 0 0 0 0 0 0 0 0 0 0 1 2 3 5 7 8 9 9 8 6 4 3 3
1 1 1 2 2 1 1 2 2 3 3 3 3 4 5 4 3 2 1 0 0 0 0 0 0 0 0 0 0 0 0 1 2 4 5 7 8 8 7 5 3 2 2
1 1 1 1 1 2 3 3 4 3 2 2 1 2 2 2 1 0 0 0 0 0 0 0 0 0 0 0 0 0 0 1 1 2 4 5 6 7 6 5 3 3 2
1 1 1 1 1 2 4 5 5 5 4 3 2 1 0 0 0 0 0 0 0 0 0 0 0 0 0 0 0 0 0 0 0 1 2 4 5 5 5 4 3 3 2
1 1 1 1 2 3 4 5 5 5 5 4 3 1 0 0 0 0 0 0 0 0 0 0 0 0 0 0 0 0 0 0 0 0 1 2 4 5 5 4 3 2 2
1 1 1 1 2 2 3 4 4 4 4 3 3 1 0 0 0 0 0 0 0 0 0 0 0 0 0 0 0 0 0 0 0 0 0 1 3 4 4 4 3 2 2
1 1 1 1 1 1 1 1 2 2 2 2 2 1 0 0 0 0 0 0 0 0 0 0 0 0 0 0 0 0 0 0 0 0 0 1 1 3 4 4 3 2 2
0 0 0 0 0 0 0 0 0 0 1 1 1 1 0 0 0 0 0 0 0 0 0 0 0 0 0 0 0 0 0 0 0 0 0 0 1 2 3 3 2 1 1
0 0 0 0 0 0 0 0 0 0 0 0 0 1 0 0 0 0 0 0 0 0 0 0 0 0 0 0 0 0 0 0 0 0 0 0 0 1 2 2 1 1 0
0 0 1 1 0 0 0 0 0 0 0 0 0 0 0 0 0 0 0 0 0 0 0 0 0 0 0 0 0 0 0 0 0 0 0 0 0 0 1 1 0 0 0
0 0 1 1 1 1 0 0 0 0 0 0 0 0 0 0 0 0 0 0 1 0 0 0 0 0 0 0 0 0 0 0 0 0 0 0 0 0 0 0 0 0 0
0 0 1 1 1 1 1 1 0 0 0 0 0 0 0 0 0 0 0 0 0 0 0 0 0 0 0 0 0 0 0 0 0 0 0 0 0 0 0 0 0 0 0
Wind_Speed
1 1 1 1 1 1 1 2 1 1 1 1 1 1 1 1 2 2 2 2 2 1 1 2 1 1 1 1 1 1 1 1 2 1 0 0 1 1 1 1 0 0 0
1 1 2 1 1 1 1 1 1 1 1 1 1 1 1 1 2 3 3 2 2 2 1 1 1 1 1 1 1 1 1 1 1 1 1 0 0 0 0 0 0 0 0
1 1 1 1 1 1 1 1 1 1 1 1 1 1 1 1 2 2 2 2 2 2 2 2 2 2 1 1 1 1 1 1 1 1 1 0 0 0 1 1 1 1 0
0 0 1 1 1 1 1 0 1 1 1 1 1 1 1 1 2 2 2 2 2 1 2 2 2 2 2 2 1 1 1 1 1 1 0 0 0 0 0 0 0 1 1
1 1 1 2 1 0 0 0 0 1 1 1 1 1 0 0 1 2 2 2 2 1 1 1 2 2 3 2 2 2 2 2 1 1 0 0 1 0 1 1 1 1 1
1 1 1 0 0 1 1 1 1 1 0 0 1 1 0 0 0 1 2 2 1 1 1 1 1 1 2 2 2 3 4 4 3 2 1 2 2 2 1 1 1 0 1
0 0 0 0 0 1 1 1 1 1 0 0 0 1 1 1 1 1 3 2 2 1 2 1 1 1 1 1 1 1 2 3 4 4 3 3 3 3 2 2 2 1 2
0 0 0 0 0 0 1 1 1 0 0 1 0 0 1 1 1 1 2 2 1 1 1 2 2 1 1 2 2 1 1 1 3 3 3 3 3 3 3 3 2 1 1
0 1 1 0 1 1 1 0 0 0 0 0 0 0 1 2 1 2 2 1 1 1 1 1 2 2 2 3 2 2 1 2 1 2 2 2 2 3 3 2 2 1 1
1 1 1 1 1 2 2 1 1 0 0 0 1 1 1 2 2 2 3 2 1 1 1 1 2 2 2 2 3 3 3 3 2 1 1 2 1 1 3 3 3 2 1
1 1 1 0 2 2 1 1 1 0 0 0 1 1 1 2 2 2 3 2 3 2 2 2 2 2 2 2 3 3 5 3 2 1 1 1 1 1 1 2 3 3 3
0 0 1 1 1 1 1 1 1 1 0 0 1 2 2 2 1 2 2 3 3 2 3 2 2 2 3 3 3 4 4 3 2 1 1 1 1 1 1 1 2 2 3
1 1 1 1 1 1 1 1 0 0 1 1 1 2 2 2 2 2 2 3 3 2 2 3 3 3 2 2 2 3 3 2 2 2 2 2 2 2 1 1 1 1 1
1 1 1 1 0 0 1 1 1 1 1 2 2 2 2 2 2 1 1 1 1 1 1 1 1 1 1 2 1 1 1 2 3 3 3 2 1 0 0 1 1 0 1
1 1 1 1 1 1 1 1 2 3 3 3 3 3 3 3 3 3 2 1 1 1 1 0 0 0 0 1 1 1 1 1 2 2 2 2 1 1 1 1 1 0 1
1 1 1 1 1 1 1 1 2 2 2 3 4 4 3 4 3 2 2 2 2 3 2 1 1 1 2 2 1 1 1 1 2 2 2 2 2 2 1 1 1 1 1
2 2 1 2 2 2 1 1 2 2 2 2 3 3 3 3 2 2 1 1 1 3 2 2 2 2 2 2 2 2 2 2 2 2 2 2 2 2 1 1 1 1 1
2 3 2 2 2 2 2 2 1 1 2 2 2 2 1 2 2 2 2 2 1 1 2 2 3 2 2 2 2 2 2 2 2 2 2 2 2 2 2 2 2 2 2
2 2 2 2 2 2 1 1 1 2 2 2 1 2 1 1 1 1 2 1 2 2 3 3 3 3 2 2 2 2 2 2 3 2 2 3 3 2 2 2 2 2 2
1 2 2 1 1 1 1 1 1 1 2 2 2 2 1 0 0 1 1 2 2 3 3 3 3 3 2 2 3 2 2 3 3 3 3 3 3 3 3 3 2 2 2
1 1 1 1 1 1 1 2 2 2 2 2 2 2 2 2 2 2 2 3 3 3 3 3 3 3 3 3 3 3 3 3 3 3 3 3 3 2 2 2 2 2 2
1 1 1 1 1 1 1 1 1 2 2 3 3 2 3 3 3 3 3 3 3 3 3 3 3 3 3 3 3 3 3 3 3 3 3 3 3 3 2 2 2 2 2
2 1 1 1 1 1 1 1 2 2 2 3 2 2 2 3 3 3 3 3 3 3 3 3 3 3 2 2 2 3 3 3 3 3 3 3 3 2 2 2 3 3 2
2 2 1 1 1 1 1 1 2 2 2 2 2 2 3 3 3 4 3 3 3 3 3 3 3 4 4 2 2 2 3 2 2 3 4 3 3 2 2 2 3 3 3
2 2 1 1 2 2 2 2 2 2 2 2 3 3 3 2 3 3 3 3 3 3 3 3 2 3 4 4 3 2 2 2 2 1 2 3 3 3 3 2 2 2 2
2 2 1 1 2 2 2 2 2 2 2 2 2 2 2 2 3 3 3 3 3 3 3 2 3 3 3 3 3 2 2 2 2 2 2 2 2 2 2 2 2 1 1
Wind_Direction
232 212 199 210 213 199 222 228 210 192 178 176 199 163 153 154 149 141 155 148 135 114 93 103 88 87 106 107 110 114 139 169 194 269 262 336 86 56 30 42 74 156 166
231 215 216 219 197 192 228 235 186 177 178 182 172 147 150 152 155 159 168 167 163 162 165 143 158 117 112 120 122 139 158 174 179 234 309 2 64 155 62 59 28 55 229
199 198 212 218 211 221 236 236 192 171 142 127 132 149 166 170 165 173 172 176 181 187 191 184 188 144 136 146 149 166 168 157 165 177 251 358 38 67 53 24 28 14 337
144 162 250 253 242 252 257 207 174 159 144 145 152 166 178 174 178 182 172 174 179 185 192 195 196 183 185 184 180 184 160 138 138 150 172 324 347 271 149 73 360 345 328
156 208 249 263 267 317 8 165 161 155 173 166 150 154 149 159 196 179 175 178 180 188 206 215 208 187 185 186 185 175 161 156 154 153 201 277 297 259 227 229 245 280 265
189 224 228 220 171 159 176 151 120 93 47 114 143 152 149 252 181 170 168 164 174 187 212 236 231 210 175 176 179 173 171 176 182 184 205 224 245 249 236 215 219 242 267
127 236 163 137 179 199 172 119 116 119 117 47 74 142 197 247 217 196 182 162 164 199 223 232 239 234 184 179 176 169 180 188 183 188 198 223 225 224 205 216 218 233 244
65 343 344 122 170 129 106 114 136 144 179 222 79 264 257 279 229 192 153 143 150 205 227 222 216 243 211 179 170 165 215 231 214 207 212 229 229 215 203 206 204 216 258
234 271 289 211 173 142 141 185 200 153 322 278 229 238 266 281 249 189 155 144 164 255 266 238 213 230 234 177 170 188 233 262 250 212 221 242 233 213 182 147 148 160 252
243 251 265 228 192 199 209 211 205 178 226 268 305 279 260 272 264 214 171 159 189 234 268 271 250 235 241 193 197 203 227 247 247 267 300 307 278 219 182 182 185 191 215
242 270 309 270 214 204 208 194 160 154 79 32 320 314 300 278 272 230 188 185 201 216 234 249 256 234 228 214 205 215 228 231 224 218 240 280 306 298 246 209 196 197 210
227 241 287 278 257 209 176 200 142 137 114 339 331 321 312 302 282 249 215 213 209 206 233 248 257 250 242 233 219 228 233 226 213 197 211 256 267 279 277 248 215 220 229
244 247 264 273 283 214 185 200 206 173 194 263 276 287 299 313 309 287 251 233 229 223 239 243 247 253 256 247 234 237 227 210 199 203 218 241 251 259 263 266 229 211 247
235 252 234 186 227 309 236 211 204 215 223 236 244 255 273 288 290 290 277 243 230 230 245 256 276 304 292 298 303 273 230 208 204 215 222 231 248 252 255 254 248 253 290
237 252 245 215 214 237 270 250 225 227 217 220 233 233 235 256 265 256 237 237 219 208 169 125 108 26 346 321 310 304 263 209 211 216 209 202 202 227 278 277 257 265 242
214 234 235 227 227 222 247 312 312 261 255 240 237 230 236 236 247 239 235 241 218 181 161 190 228 241 245 253 261 284 279 257 240 216 205 207 214 225 259 275 262 228 237
209 216 221 220 213 220 232 248 287 324 337 313 279 252 232 223 226 238 224 210 196 162 176 221 238 240 245 246 246 252 263 264 248 227 222 214 209 218 231 246 245 245 253
214 213 211 216 218 221 228 239 249 261 294 313 319 287 240 215 211 209 170 119 129 191 220 233 240 242 243 244 245 243 251 250 238 225 222 223 209 208 217 230 231 238 249
207 206 204 212 218 224 225 231 245 254 259 277 305 326 317 236 195 194 165 177 214 228 234 242 245 244 248 251 253 252 253 246 233 221 221 224 212 206 217 228 231 230 237
199 209 195 190 202 219 227 226 241 251 259 258 259 267 284 116 246 246 214 229 236 243 244 247 251 251 248 251 254 248 248 248 233 221 220 222 215 210 215 223 228 232 240
193 209 197 187 216 227 232 233 238 243 255 265 266 257 211 217 238 245 243 240 241 245 248 248 249 249 246 246 248 246 246 245 235 226 217 215 212 214 221 221 223 231 239
171 199 202 210 220 228 245 246 244 246 254 263 277 274 229 233 247 253 256 255 250 246 246 246 247 247 244 243 242 244 247 248 239 225 217 215 212 213 218 227 225 221 217
174 182 195 212 213 234 245 249 246 250 260 265 271 273 254 248 251 252 257 259 257 254 249 242 248 256 258 254 247 241 242 239 226 212 209 213 214 213 211 216 214 205 204
183 187 195 208 220 230 244 253 252 257 265 271 276 275 266 259 258 260 262 265 263 262 254 241 242 249 252 250 243 239 242 242 225 211 206 204 207 208 206 209 213 206 203
180 182 196 214 221 231 244 251 256 263 272 277 279 281 278 273 274 275 274 272 268 265 263 254 251 252 249 244 240 237 226 212 208 205 200 198 202 204 201 205 212 216 212
183 185 201 222 231 235 239 248 256 260 265 275 284 291 290 287 286 292 293 288 284 279 273 261 258 247 239 235 237 231 197 194 201 196 191 190 193 196 190 190 189 197 203